Weather History for Lamar, CO

Change the Weather History Date:

Wednesday, October 10, 2012

  Actual Average Record
Temperature  
Mean Temperature 51 °F 55 °F  
Max Temperature 74 °F 73 °F 93 °F (1931)
Min Temperature 28 °F 38 °F 22 °F (1992)
Degree Days  
Heating Degree Days 14 10  
Month to date heating degree days 144 82  
Since 1 July heating degree days 193 165  
Cooling Degree Days 0 0  
Month to date cooling degree days 1 8  
Year to date cooling degree days 1626 1120  
Growing Degree Days 2 (Base 50)    
Moisture  
Dew Point 34 °F    
Average Humidity 63    
Maximum Humidity 100    
Minimum Humidity 25    
Precipitation  
Precipitation 0.00 in 0.03 in 1.18 in (2005)
Month to date precipitation 0.04 0.26  
Year to date precipitation 5.54 13.88  
Sea Level Pressure  
Sea Level Pressure 30.06 in    
Wind  
Wind Speed 10 mph (South)    
Max Wind Speed 24 mph    
Max Gust Speed 31 mph    
Visibility 10 miles    
Events      
T = Trace of Precipitation, MM = Missing Value Source: NWS Daily Summary

Daily Weather History Graph

Daily Weather History Graph

Search for Another Location

Airport:

Trip Planner

Search our weather history database for the weather conditions in past years. The results will help you decide how hot, cold, wet, or windy it might be!

Date:

Astronomy

Oct. 10, 2012 Rise Set
Actual Time 6:55 AM MDT 6:19 PM MDT
Civil Twilight 6:28 AM MDT 6:45 PM MDT
Nautical Twilight 5:58 AM MDT 7:16 PM MDT
Astronomical Twilight 5:27 AM MDT 7:46 PM MDT
Moon 1:38 AM MDT (10/10) 3:19 PM MDT (10/10)
Length of Visible Light 12h 17m
Length of Day
11h 24m
Waning Crescent, 26% of the Moon is Illuminated
Oct 10
Waning Crescent
Oct 15
New
Oct 21
First Quarter
Oct 29
Full
Nov 6
Last Quarter

Hourly Weather History & Observations

Time (MDT) Temp. Windchill Dew Point Humidity Pressure Visibility Wind Dir Wind Speed Gust Speed Precip Events Conditions
12:53 AM 37.9 °F - 33.1 °F 83% 30.20 in 10.0 mi Calm Calm - N/A   Clear
1:53 AM 32.0 °F - 30.9 °F 96% 30.22 in 10.0 mi Calm Calm - N/A   Clear
2:53 AM 30.0 °F 24.1 °F 28.9 °F 96% 30.21 in 10.0 mi SSW 5.8 mph - N/A   Clear
3:53 AM 30.9 °F 26.2 °F 28.9 °F 92% 30.20 in 10.0 mi SW 4.6 mph - N/A   Clear
4:53 AM 30.9 °F - 30.0 °F 96% 30.21 in 10.0 mi Calm Calm - N/A   Clear
5:53 AM 30.0 °F - 28.0 °F 92% 30.22 in 10.0 mi Calm Calm - N/A   Clear
6:53 AM 30.0 °F - 28.0 °F 92% 30.24 in 8.0 mi Calm Calm - N/A   Clear
7:53 AM 35.1 °F 31.0 °F 33.1 °F 92% 30.23 in 8.0 mi East 4.6 mph - N/A   Clear
8:53 AM 44.1 °F 42.5 °F 37.0 °F 76% 30.21 in 10.0 mi Variable 3.5 mph - N/A   Clear
9:53 AM 54.0 °F - 36.0 °F 51% 30.18 in 10.0 mi South 18.4 mph 24.2 mph N/A   Clear
10:53 AM 57.9 °F - 34.0 °F 41% 30.15 in 10.0 mi South 15.0 mph 28.8 mph N/A   Clear
11:53 AM 62.1 °F - 36.0 °F 38% 30.10 in 10.0 mi South 18.4 mph 27.6 mph N/A   Clear
12:53 PM 66.0 °F - 35.1 °F 32% 30.04 in 10.0 mi South 19.6 mph 26.5 mph N/A   Clear
1:53 PM 70.0 °F - 36.0 °F 29% 30.00 in 10.0 mi South 12.7 mph 25.3 mph N/A   Clear
2:53 PM 71.1 °F - 35.1 °F 27% 29.96 in 10.0 mi South 18.4 mph 24.2 mph N/A   Clear
3:53 PM 73.0 °F - 35.1 °F 25% 29.93 in 10.0 mi SSE 17.3 mph 24.2 mph N/A   Clear
4:53 PM 71.1 °F - 36.0 °F 28% 29.91 in 10.0 mi South 16.1 mph - N/A   Clear
5:53 PM 68.0 °F - 36.0 °F 31% 29.91 in 10.0 mi SSE 11.5 mph - N/A   Clear
6:53 PM 63.0 °F - 37.0 °F 38% 29.91 in 10.0 mi SSE 10.4 mph - N/A   Clear
7:53 PM 62.1 °F - 37.0 °F 39% 29.91 in 10.0 mi South 16.1 mph - N/A   Clear
8:53 PM 59.0 °F - 37.9 °F 46% 29.89 in 10.0 mi South 15.0 mph - N/A   Clear
9:53 PM 59.0 °F - 37.9 °F 46% 29.88 in 10.0 mi South 11.5 mph - N/A   Clear
10:53 PM 55.0 °F - 37.9 °F 53% 29.88 in 10.0 mi Calm Calm - N/A   Clear
11:53 PM 50.0 °F - 37.9 °F 63% 29.88 in 10.0 mi ENE 4.6 mph - N/A   Clear